Time,TemperatureF,DewpointF,PressureIn,WindDirection,WindDirectionDegrees,WindSpeedMPH,WindSpeedGustMPH,Humidity,HourlyPrecipIn,Conditions,Clouds,dailyrainin,SoftwareType,DateUTC
2013-07-06 00:02:00,80.0,63.0,29.88,ESE,113,5.0,7.0,56,0.00,,,0.00,,2013-07-06 05:02:00,
2013-07-06 00:12:00,79.0,63.0,29.88,ESE,107,4.0,7.0,58,0.00,,,0.00,,2013-07-06 05:12:00,
2013-07-06 00:22:00,79.0,63.0,29.88,ESE,107,4.0,7.0,58,0.00,,,0.00,,2013-07-06 05:22:00,
2013-07-06 00:33:00,79.0,63.0,29.88,ESE,107,4.0,7.0,58,0.00,,,0.00,,2013-07-06 05:33:00,
2013-07-06 00:42:00,78.0,62.0,29.88,ESE,114,3.0,5.0,59,0.00,,,0.00,,2013-07-06 05:42:00,
2013-07-06 00:53:00,78.0,62.0,29.88,ESE,114,3.0,5.0,59,0.00,,,0.00,,2013-07-06 05:53:00,
2013-07-06 01:02:00,78.0,62.0,29.88,ESE,114,3.0,5.0,59,0.00,,,0.00,,2013-07-06 06:02:00,
2013-07-06 01:12:00,78.0,62.0,29.88,ESE,114,3.0,5.0,59,0.00,,,0.00,,2013-07-06 06:12:00,
2013-07-06 01:22:00,77.0,63.0,29.88,ESE,111,2.0,3.0,63,0.00,,,0.00,,2013-07-06 06:22:00,
2013-07-06 01:34:00,77.0,63.0,29.88,ESE,111,2.0,3.0,63,0.00,,,0.00,,2013-07-06 06:34:00,
2013-07-06 01:43:00,77.0,64.0,29.88,ESE,109,3.0,3.0,64,0.00,,,0.00,,2013-07-06 06:43:00,
2013-07-06 01:53:00,77.0,64.0,29.88,ESE,109,3.0,3.0,64,0.00,,,0.00,,2013-07-06 06:53:00,
2013-07-06 02:02:00,77.0,64.0,29.88,ESE,109,3.0,3.0,64,0.00,,,0.00,,2013-07-06 07:02:00,
2013-07-06 02:12:00,76.0,63.0,29.88,SE,127,3.0,6.0,65,0.01,,,0.01,,2013-07-06 07:12:00,
2013-07-06 02:22:00,76.0,63.0,29.88,SE,127,3.0,6.0,65,0.01,,,0.01,,2013-07-06 07:22:00,
2013-07-06 02:33:00,76.0,63.0,29.88,SE,127,3.0,6.0,65,0.01,,,0.01,,2013-07-06 07:33:00,
2013-07-06 02:44:00,75.0,63.0,29.88,ESE,115,2.0,3.0,67,0.01,,,0.01,,2013-07-06 07:44:00,
2013-07-06 02:52:00,75.0,63.0,29.88,ESE,115,2.0,3.0,67,0.01,,,0.01,,2013-07-06 07:52:00,
2013-07-06 03:02:00,75.0,63.0,29.88,SE,128,2.0,3.0,66,0.00,,,0.01,,2013-07-06 08:02:00,
2013-07-06 03:11:00,75.0,63.0,29.88,SE,128,2.0,3.0,66,0.00,,,0.01,,2013-07-06 08:11:00,
2013-07-06 03:21:00,74.0,63.0,29.88,ESE,122,1.0,3.0,68,0.00,,,0.01,,2013-07-06 08:21:00,
2013-07-06 03:34:00,74.0,63.0,29.88,ESE,122,1.0,3.0,68,0.00,,,0.01,,2013-07-06 08:34:00,
2013-07-06 03:43:00,74.0,63.0,29.88,ESE,122,1.0,3.0,68,0.00,,,0.01,,2013-07-06 08:43:00,
2013-07-06 03:54:00,74.0,63.0,29.88,ESE,117,1.0,3.0,68,0.00,,,0.01,,2013-07-06 08:54:00,
2013-07-06 04:02:00,74.0,63.0,29.88,ESE,117,1.0,3.0,68,0.00,,,0.01,,2013-07-06 09:02:00,
2013-07-06 04:11:00,74.0,63.0,29.88,ESE,117,1.0,3.0,68,0.00,,,0.01,,2013-07-06 09:11:00,
2013-07-06 04:22:00,72.0,61.0,29.88,SE,129,0.0,3.0,69,0.00,,,0.01,,2013-07-06 09:22:00,
2013-07-06 04:33:00,73.0,62.0,29.88,SE,138,2.0,5.0,69,0.00,,,0.01,,2013-07-06 09:33:00,
2013-07-06 04:43:00,73.0,62.0,29.88,SE,138,2.0,5.0,69,0.00,,,0.01,,2013-07-06 09:43:00,
2013-07-06 04:53:00,73.0,62.0,29.88,SE,138,2.0,5.0,69,0.00,,,0.01,,2013-07-06 09:53:00,
2013-07-06 05:02:00,73.0,62.0,29.87,SE,129,2.0,5.0,69,0.00,,,0.01,,2013-07-06 10:02:00,
2013-07-06 05:11:00,73.0,63.0,29.87,ESE,121,3.0,5.0,70,0.00,,,0.01,,2013-07-06 10:11:00,
2013-07-06 05:22:00,73.0,63.0,29.87,ESE,121,3.0,5.0,70,0.00,,,0.01,,2013-07-06 10:22:00,
2013-07-06 05:33:00,72.0,62.0,29.87,SE,129,2.0,3.0,71,0.00,,,0.01,,2013-07-06 10:33:00,
2013-07-06 05:42:00,72.0,62.0,29.87,SE,129,2.0,3.0,71,0.00,,,0.01,,2013-07-06 10:42:00,
2013-07-06 05:53:00,72.0,62.0,29.87,ESE,120,2.0,3.0,72,0.00,,,0.01,,2013-07-06 10:53:00,
2013-07-06 06:01:00,71.0,62.0,29.87,SE,133,3.0,5.0,74,0.00,,,0.01,,2013-07-06 11:01:00,
2013-07-06 06:11:00,71.0,63.0,29.88,SE,136,2.0,3.0,75,0.00,,,0.01,,2013-07-06 11:11:00,
2013-07-06 06:22:00,71.0,63.0,29.88,SE,132,2.0,5.0,76,0.00,,,0.01,,2013-07-06 11:22:00,
2013-07-06 06:33:00,71.0,63.0,29.88,SE,132,2.0,5.0,76,0.00,,,0.01,,2013-07-06 11:33:00,
2013-07-06 06:42:00,71.0,63.0,29.88,SE,132,2.0,5.0,76,0.00,,,0.01,,2013-07-06 11:42:00,
2013-07-06 06:53:00,71.0,63.0,29.88,SE,132,2.0,5.0,76,0.00,,,0.01,,2013-07-06 11:53:00,
2013-07-06 07:01:00,71.0,64.0,29.88,SE,132,2.0,3.0,78,0.00,,,0.01,,2013-07-06 12:01:00,
2013-07-06 07:11:00,71.0,64.0,29.89,SE,142,3.0,3.0,79,0.00,,,0.01,,2013-07-06 12:11:00,
2013-07-06 07:22:00,71.0,64.0,29.89,SE,142,3.0,3.0,79,0.00,,,0.01,,2013-07-06 12:22:00,
2013-07-06 07:33:00,71.0,64.0,29.89,SE,142,3.0,3.0,79,0.00,,,0.01,,2013-07-06 12:33:00,
2013-07-06 07:43:00,71.0,64.0,29.89,SE,142,3.0,3.0,79,0.00,,,0.01,,2013-07-06 12:43:00,
2013-07-06 08:01:00,74.0,67.0,29.89,SE,141,3.0,7.0,78,0.00,,,0.01,,2013-07-06 13:01:00,
2013-07-06 08:12:00,74.0,67.0,29.89,SE,141,3.0,7.0,78,0.00,,,0.01,,2013-07-06 13:12:00,
2013-07-06 08:22:00,75.0,67.0,29.89,SE,141,4.0,6.0,77,0.00,,,0.01,,2013-07-06 13:22:00,
2013-07-06 08:33:00,75.0,67.0,29.89,SE,141,4.0,6.0,77,0.00,,,0.01,,2013-07-06 13:33:00,
2013-07-06 08:43:00,75.0,67.0,29.89,SE,141,4.0,6.0,77,0.00,,,0.01,,2013-07-06 13:43:00,
2013-07-06 08:52:00,75.0,67.0,29.89,SE,141,4.0,6.0,77,0.00,,,0.01,,2013-07-06 13:52:00,
2013-07-06 09:02:00,79.0,69.0,29.90,SSE,157,4.0,9.0,72,0.00,,,0.01,,2013-07-06 14:02:00,
2013-07-06 09:11:00,79.0,69.0,29.90,SSE,157,4.0,9.0,72,0.00,,,0.01,,2013-07-06 14:11:00,
2013-07-06 09:22:00,79.0,69.0,29.90,SSE,157,4.0,9.0,72,0.00,,,0.01,,2013-07-06 14:22:00,
2013-07-06 09:34:00,79.0,69.0,29.90,SSE,157,4.0,9.0,72,0.00,,,0.01,,2013-07-06 14:34:00,
2013-07-06 09:42:00,79.0,69.0,29.90,SSE,157,4.0,9.0,72,0.00,,,0.01,,2013-07-06 14:42:00,
2013-07-06 10:22:00,85.0,71.0,29.89,South,170,4.0,9.0,64,0.00,,,0.01,,2013-07-06 15:22:00,
2013-07-06 10:33:00,85.0,71.0,29.89,South,170,4.0,9.0,64,0.00,,,0.01,,2013-07-06 15:33:00,
2013-07-06 10:43:00,86.0,71.0,29.89,SSE,152,6.0,10.0,62,0.00,,,0.01,,2013-07-06 15:43:00,
2013-07-06 10:53:00,86.0,70.0,29.89,SSE,159,6.0,10.0,60,0.00,,,0.01,,2013-07-06 15:53:00,
2013-07-06 10:58:00,86.0,70.0,29.89,South,180,4.0,8.0,59,0.00,,,0.01,,2013-07-06 15:58:00,
2013-07-06 11:05:00,86.0,70.0,29.89,SSE,159,6.0,10.0,60,0.00,,,0.01,,2013-07-06 16:05:00,
2013-07-06 11:15:00,86.0,70.0,29.89,South,180,4.0,8.0,59,0.00,,,0.01,,2013-07-06 16:15:00,
2013-07-06 11:23:00,86.0,70.0,29.89,South,180,4.0,8.0,59,0.00,,,0.01,,2013-07-06 16:23:00,
2013-07-06 12:21:00,89.0,70.0,29.89,SE,146,6.0,12.0,53,0.00,,,0.01,,2013-07-06 17:21:00,
2013-07-06 12:30:00,88.0,68.0,29.89,SE,145,9.0,14.0,52,0.00,,,0.01,,2013-07-06 17:30:00,
2013-07-06 12:50:00,89.0,68.0,29.88,South,173,5.0,10.0,51,0.00,,,0.01,,2013-07-06 17:50:00,
2013-07-06 13:07:00,89.0,67.0,29.88,SE,138,5.0,12.0,48,0.00,,,0.01,,2013-07-06 18:07:00,
2013-07-06 13:08:00,90.0,67.0,29.88,South,171,5.0,13.0,47,0.00,,,0.01,,2013-07-06 18:08:00,
2013-07-06 13:29:00,90.0,67.0,29.88,South,171,5.0,13.0,47,0.00,,,0.01,,2013-07-06 18:29:00,
2013-07-06 13:41:00,90.0,67.0,29.88,South,171,5.0,13.0,47,0.00,,,0.01,,2013-07-06 18:41:00,
2013-07-06 14:18:00,90.0,66.0,29.85,SE,138,4.0,9.0,46,0.00,,,0.01,,2013-07-06 19:18:00,
2013-07-06 14:34:00,91.0,67.0,29.85,ESE,114,9.0,14.0,45,0.00,,,0.01,,2013-07-06 19:34:00,
2013-07-06 14:48:00,90.0,66.0,29.85,SE,138,4.0,9.0,46,0.00,,,0.01,,2013-07-06 19:48:00,
2013-07-06 14:57:00,90.0,66.0,29.85,SE,138,4.0,9.0,46,0.00,,,0.01,,2013-07-06 19:57:00,
2013-07-06 15:04:00,90.0,66.0,29.85,SE,138,4.0,9.0,46,0.00,,,0.01,,2013-07-06 20:04:00,
2013-07-06 15:36:00,93.0,66.0,29.84,ESE,105,6.0,13.0,42,0.00,,,0.01,,2013-07-06 20:36:00,
2013-07-06 15:51:00,93.0,66.0,29.84,ESE,105,6.0,13.0,42,0.00,,,0.01,,2013-07-06 20:51:00,
2013-07-06 15:59:00,93.0,66.0,29.84,ESE,105,6.0,13.0,42,0.00,,,0.01,,2013-07-06 20:59:00,
2013-07-06 16:08:00,92.0,64.0,29.83,ESE,115,6.0,13.0,40,0.00,,,0.01,,2013-07-06 21:08:00,
2013-07-06 16:18:00,92.0,64.0,29.83,ESE,104,9.0,14.0,40,0.00,,,0.01,,2013-07-06 21:18:00,
2013-07-06 16:31:00,92.0,66.0,29.83,ESE,117,10.0,15.0,42,0.00,,,0.01,,2013-07-06 21:31:00,
2013-07-06 16:41:00,93.0,64.0,29.82,ESE,118,5.0,14.0,39,0.00,,,0.01,,2013-07-06 21:41:00,
2013-07-06 17:09:00,93.0,62.0,29.81,South,169,4.0,12.0,36,0.00,,,0.01,,2013-07-06 22:09:00,
2013-07-06 17:39:00,94.0,63.0,29.81,ESE,112,7.0,14.0,36,0.00,,,0.01,,2013-07-06 22:39:00,
2013-07-06 18:09:00,94.0,64.0,29.80,SE,132,8.0,12.0,38,0.00,,,0.01,,2013-07-06 23:09:00,
2013-07-06 18:20:00,94.0,64.0,29.80,SE,132,8.0,12.0,38,0.00,,,0.01,,2013-07-06 23:20:00,
2013-07-06 18:41:00,93.0,62.0,29.80,SSE,158,4.0,12.0,36,0.00,,,0.01,,2013-07-06 23:41:00,
2013-07-06 19:08:00,92.0,63.0,29.80,SE,130,5.0,8.0,38,0.00,,,0.01,,2013-07-07 00:08:00,
2013-07-06 19:10:00,92.0,62.0,29.80,ESE,102,9.0,13.0,37,0.00,,,0.01,,2013-07-07 00:10:00,
2013-07-06 19:29:00,92.0,63.0,29.80,SE,130,5.0,8.0,38,0.00,,,0.01,,2013-07-07 00:29:00,
2013-07-06 19:40:00,92.0,63.0,29.80,SE,130,5.0,8.0,38,0.00,,,0.01,,2013-07-07 00:40:00,
2013-07-06 19:49:00,92.0,63.0,29.80,SE,130,5.0,8.0,38,0.00,,,0.01,,2013-07-07 00:49:00,
2013-07-06 20:07:00,92.0,63.0,29.80,SE,130,5.0,8.0,38,0.00,,,0.01,,2013-07-07 01:07:00,
2013-07-06 23:31:00,86.0,66.0,29.82,East,86,2.0,3.0,51,0.00,,,0.01,,2013-07-07 04:31:00,
2013-07-06 23:41:00,86.0,66.0,29.82,East,86,2.0,3.0,51,0.00,,,0.01,,2013-07-07 04:41:00,
2013-07-06 23:51:00,86.0,66.0,29.82,East,86,2.0,3.0,51,0.00,,,0.01,,2013-07-07 04:51:00,